VKG480 ESSV-LGRP

Flight info

Callsign VKG480
Flight time 3h 16m
Altitude 37000
Route TESPO DCT PENOR N133 IRLUN DCT BIBKA N133 GOSAK DCT ORTEB DCT LENOV DCT RAZEC DCT KOJOT DCT KSC DCT NARKA DCT ORA DCT ADUKU DCT GANNA DCT EVRIK DCT SODGO DCT OVDOT DCT LOMOS DCT OTKOK N127 NIKTI DCT STINO DCT MES UN139 LURUS UL995 CODIC
Aircraft A321/M-SDE2E3FGHIJ1RWXYZ/LB2

Departure

Time 2026-04-22 05:09
Airport Visby Airport (ESSV)

Arrival

Time 2026-04-22 08:25
Airport Rhodes International Airport "Diagoras" (LGRP)
Time Latitude Longitude Altitude Speed Heading
2026-04-22 04:30 57.66015 18.33926 159 ft 0 kts 336°
2026-04-22 05:01 57.66020 18.33926 159 ft 4 kts 356°
2026-04-22 05:01 57.66033 18.33992 159 ft 6 kts 110°
2026-04-22 05:02 57.66026 18.34022 159 ft 1 kts 111°
2026-04-22 05:02 57.66024 18.34034 159 ft 1 kts 111°
2026-04-22 05:02 57.66023 18.34039 159 ft 2 kts 111°
2026-04-22 05:02 57.66011 18.34097 159 ft 7 kts 111°
2026-04-22 05:03 57.65994 18.34177 159 ft 6 kts 111°
2026-04-22 05:03 57.65990 18.34197 159 ft 0 kts 111°
2026-04-22 05:04 57.65988 18.34204 158 ft 4 kts 111°
2026-04-22 05:04 57.65969 18.34300 158 ft 10 kts 112°
2026-04-22 05:04 57.65907 18.34351 156 ft 11 kts 194°
2026-04-22 05:04 57.65846 18.34309 156 ft 8 kts 201°
2026-04-22 05:05 57.65836 18.34302 157 ft 8 kts 201°
2026-04-22 05:05 57.65835 18.34301 157 ft 8 kts 201°
2026-04-22 05:06 57.65777 18.34259 158 ft 11 kts 201°
2026-04-22 05:06 57.65673 18.34183 159 ft 20 kts 201°
2026-04-22 05:06 57.65552 18.34098 160 ft 18 kts 200°
2026-04-22 05:06 57.65471 18.34021 158 ft 4 kts 193°
2026-04-22 05:07 57.65464 18.34039 158 ft 2 kts 105°
2026-04-22 05:07 57.65476 18.34057 159 ft 5 kts 22°
2026-04-22 05:07 57.65518 18.34075 160 ft 2 kts 20°
2026-04-22 05:07 57.65519 18.34077 160 ft 0 kts 22°
2026-04-22 05:08 57.65532 18.34086 160 ft 13 kts 22°
2026-04-22 05:08 57.65886 18.34342 156 ft 94 kts 21°
2026-04-22 05:08 57.66703 18.34934 158 ft 154 kts 22°
2026-04-22 05:08 57.67748 18.35707 730 ft 157 kts 21°
2026-04-22 05:09 57.68743 18.36452 1528 ft 153 kts 21°
2026-04-22 05:09 57.69667 18.37582 1929 ft 170 kts 51°
2026-04-22 05:09 57.69978 18.39777 2333 ft 186 kts 94°
2026-04-22 05:09 57.69395 18.41974 2786 ft 198 kts 135°
2026-04-22 05:10 57.68155 18.43053 3213 ft 204 kts 174°
2026-04-22 05:10 57.66719 18.42561 3359 ft 222 kts 207°
2026-04-22 05:10 57.65277 18.41155 3528 ft 246 kts 208°
2026-04-22 05:10 57.63571 18.40199 3925 ft 268 kts 189°
2026-04-22 05:11 57.61697 18.39733 4724 ft 275 kts 189°
2026-04-22 05:11 57.59774 18.39296 5556 ft 282 kts 188°
2026-04-22 05:11 57.57802 18.38871 6399 ft 288 kts 188°
2026-04-22 05:11 57.55797 18.38443 7186 ft 293 kts 188°
2026-04-22 05:12 57.53752 18.37995 7985 ft 298 kts 188°
2026-04-22 05:12 57.51674 18.37521 8802 ft 303 kts 188°
2026-04-22 05:12 57.49567 18.37019 9611 ft 307 kts 188°
2026-04-22 05:12 57.47429 18.36492 10377 ft 313 kts 188°
2026-04-22 05:13 57.45215 18.35930 10645 ft 337 kts 188°
2026-04-22 05:13 57.42815 18.35309 10896 ft 358 kts 188°
2026-04-22 05:13 57.40319 18.34657 11517 ft 366 kts 188°
2026-04-22 05:13 57.37772 18.33983 12255 ft 370 kts 189°
2026-04-22 05:14 57.35279 18.32755 12977 ft 374 kts 201°
2026-04-22 05:14 57.32847 18.30999 13337 ft 377 kts 204°
2026-04-22 05:14 57.30411 18.29244 14251 ft 374 kts 202°
2026-04-22 05:14 57.27964 18.27498 14860 ft 380 kts 202°
2026-04-22 05:15 57.25479 18.25735 15524 ft 384 kts 201°
2026-04-22 05:15 57.22973 18.23958 16186 ft 388 kts 201°
2026-04-22 05:15 57.20447 18.22157 16837 ft 391 kts 201°
2026-04-22 05:15 57.17890 18.20349 17473 ft 395 kts 201°
2026-04-22 05:16 57.15341 18.18548 18090 ft 398 kts 201°
2026-04-22 05:16 57.12746 18.16704 18693 ft 401 kts 201°
2026-04-22 05:16 57.10129 18.14858 19280 ft 405 kts 201°
2026-04-22 05:16 57.07479 18.13007 19828 ft 409 kts 200°
2026-04-22 05:17 57.04807 18.11131 20370 ft 412 kts 200°
2026-04-22 05:17 57.02118 18.09252 20927 ft 415 kts 200°
2026-04-22 05:17 56.99411 18.07359 21458 ft 418 kts 200°
2026-04-22 05:17 56.96681 18.05454 21980 ft 421 kts 200°
2026-04-22 05:18 56.91161 18.01602 22967 ft 427 kts 200°
2026-04-22 05:18 56.88374 17.99660 23437 ft 430 kts 200°
2026-04-22 05:18 56.85565 17.97714 23879 ft 434 kts 200°
2026-04-22 05:19 56.82725 17.95745 24314 ft 437 kts 199°
2026-04-22 05:19 56.79872 17.93769 24766 ft 440 kts 199°
2026-04-22 05:19 56.77003 17.91782 25214 ft 443 kts 199°
2026-04-22 05:19 56.74104 17.89784 25656 ft 445 kts 199°
2026-04-22 05:20 56.71236 17.87812 26068 ft 448 kts 199°
2026-04-22 05:20 56.68271 17.85779 26489 ft 451 kts 199°
2026-04-22 05:20 56.65371 17.83790 26901 ft 453 kts 199°
2026-04-22 05:20 56.62413 17.81767 27318 ft 455 kts 199°
2026-04-22 05:21 56.59445 17.79730 27725 ft 457 kts 199°
2026-04-22 05:21 56.56455 17.77672 28118 ft 460 kts 199°
2026-04-22 05:21 56.53458 17.75627 28522 ft 461 kts 199°
2026-04-22 05:21 56.50449 17.73597 28911 ft 462 kts 198°
2026-04-22 05:22 56.47419 17.71560 29273 ft 464 kts 199°
2026-04-22 05:22 56.44386 17.69502 29609 ft 467 kts 198°
2026-04-22 05:22 56.41338 17.67441 29938 ft 469 kts 199°
2026-04-22 05:22 56.38278 17.65355 30277 ft 471 kts 199°
2026-04-22 05:23 56.35206 17.63279 30577 ft 473 kts 198°
2026-04-22 05:23 56.32110 17.61213 30866 ft 476 kts 198°
2026-04-22 05:23 56.29005 17.59115 31259 ft 477 kts 199°
2026-04-22 05:23 56.25891 17.57011 31658 ft 477 kts 199°
2026-04-22 05:24 56.22781 17.54938 32036 ft 477 kts 198°
2026-04-22 05:24 56.19668 17.52866 32395 ft 478 kts 198°
2026-04-22 05:24 56.16549 17.50775 32745 ft 479 kts 199°
2026-04-22 05:24 56.13460 17.48716 33092 ft 479 kts 198°
2026-04-22 05:25 56.10332 17.46638 33434 ft 479 kts 199°
2026-04-22 05:25 56.07204 17.44553 33755 ft 480 kts 199°
2026-04-22 05:25 56.04064 17.42479 34088 ft 480 kts 199°
2026-04-22 05:25 56.00924 17.40405 34395 ft 481 kts 199°
2026-04-22 05:26 55.97782 17.38336 34713 ft 482 kts 199°
2026-04-22 05:26 55.94631 17.36246 35032 ft 482 kts 199°
2026-04-22 05:26 55.91500 17.34173 35208 ft 479 kts 199°
2026-04-22 05:26 55.88382 17.32119 35233 ft 477 kts 199°
2026-04-22 05:27 55.82166 17.28048 35229 ft 475 kts 198°
2026-04-22 05:27 55.75954 17.24006 35228 ft 475 kts 198°
2026-04-22 05:28 55.69772 17.19985 35229 ft 476 kts 198°
2026-04-22 05:28 55.63425 17.17097 35222 ft 467 kts 174°
2026-04-22 05:29 55.60283 17.18171 35223 ft 455 kts 152°
2026-04-22 05:29 55.57536 17.20808 35234 ft 449 kts 145°
2026-04-22 05:29 55.51919 17.25800 35217 ft 454 kts 150°
2026-04-22 05:30 55.46171 17.30419 35212 ft 454 kts 151°
2026-04-22 05:30 55.40416 17.35033 35211 ft 454 kts 151°
2026-04-22 05:31 55.34674 17.39654 35210 ft 454 kts 151°
2026-04-22 05:31 55.28912 17.44219 35209 ft 455 kts 151°
2026-04-22 05:32 55.23182 17.48769 35209 ft 454 kts 151°
2026-04-22 05:32 55.17415 17.53287 35208 ft 455 kts 152°
2026-04-22 05:33 55.11613 17.57725 35207 ft 455 kts 152°
2026-04-22 05:33 55.06796 17.61431 35205 ft 455 kts 152°
2026-04-22 05:34 55.00990 17.65844 35205 ft 455 kts 152°
2026-04-22 05:34 54.95189 17.70303 35205 ft 455 kts 150°
2026-04-22 05:35 54.89433 17.74873 35203 ft 454 kts 151°
2026-04-22 05:35 54.83672 17.79409 35203 ft 455 kts 151°
2026-04-22 05:36 54.77907 17.83929 35202 ft 455 kts 151°
2026-04-22 05:36 54.72136 17.88419 35202 ft 455 kts 151°
2026-04-22 05:37 54.66354 17.92890 35201 ft 455 kts 151°
2026-04-22 05:37 54.60582 17.97374 35203 ft 455 kts 151°
2026-04-22 05:38 54.54795 18.01827 35202 ft 455 kts 151°
2026-04-22 05:38 54.49014 18.06267 35203 ft 455 kts 151°
2026-04-22 05:39 54.43229 18.10698 35203 ft 455 kts 151°
2026-04-22 05:39 54.37448 18.15109 35202 ft 455 kts 151°
2026-04-22 05:40 54.31673 18.19507 35203 ft 454 kts 151°
2026-04-22 05:40 54.25889 18.23884 35206 ft 454 kts 151°
2026-04-22 05:41 54.20104 18.28208 35207 ft 454 kts 152°
2026-04-22 05:41 54.14317 18.32509 35207 ft 454 kts 151°
2026-04-22 05:42 54.08535 18.36832 35206 ft 453 kts 152°
2026-04-22 05:42 54.02753 18.41129 35204 ft 453 kts 152°
2026-04-22 05:43 53.97008 18.45374 35202 ft 453 kts 152°
2026-04-22 05:43 53.91216 18.49642 35203 ft 453 kts 152°
2026-04-22 05:44 53.85432 18.53911 35204 ft 454 kts 152°
2026-04-22 05:44 53.79632 18.58138 35202 ft 454 kts 152°
2026-04-22 05:45 53.73817 18.62314 35198 ft 455 kts 155°
2026-04-22 05:45 53.67848 18.65938 35206 ft 456 kts 155°
2026-04-22 05:46 53.61878 18.69580 35209 ft 456 kts 156°
2026-04-22 05:46 53.55913 18.73231 35211 ft 456 kts 155°
2026-04-22 05:47 53.49950 18.76861 35213 ft 456 kts 156°
2026-04-22 05:47 53.43984 18.80489 35214 ft 456 kts 156°
2026-04-22 05:48 53.38021 18.84107 35213 ft 456 kts 156°
2026-04-22 05:48 53.32053 18.87701 35211 ft 456 kts 156°
2026-04-22 05:49 53.26086 18.91288 35211 ft 456 kts 156°
2026-04-22 05:49 53.20117 18.94885 35212 ft 456 kts 156°
2026-04-22 05:50 53.14067 18.98130 35209 ft 457 kts 159°
2026-04-22 05:50 53.07994 19.01265 35210 ft 457 kts 159°
2026-04-22 05:51 53.01928 19.04396 35211 ft 457 kts 159°
2026-04-22 05:51 52.95857 19.07525 35207 ft 457 kts 159°
2026-04-22 05:52 52.89776 19.10652 35209 ft 457 kts 159°
2026-04-22 05:52 52.83700 19.13781 35211 ft 457 kts 159°
2026-04-22 05:53 52.77627 19.16893 35208 ft 457 kts 159°
2026-04-22 05:53 52.71546 19.19991 35204 ft 457 kts 159°
2026-04-22 05:54 52.65461 19.23085 35202 ft 457 kts 159°
2026-04-22 05:54 52.59406 19.26151 35202 ft 458 kts 159°
2026-04-22 05:55 52.53306 19.29215 35202 ft 458 kts 159°
2026-04-22 05:55 52.47211 19.32309 35203 ft 458 kts 159°
2026-04-22 05:56 52.41135 19.35372 35204 ft 458 kts 159°
2026-04-22 05:56 52.35007 19.38436 35208 ft 459 kts 159°
2026-04-22 05:57 52.28935 19.41465 35207 ft 458 kts 159°
2026-04-22 05:57 52.22833 19.44504 35201 ft 458 kts 160°
2026-04-22 05:58 52.16730 19.47534 35200 ft 458 kts 159°
2026-04-22 05:58 52.10633 19.50554 35197 ft 458 kts 160°
2026-04-22 05:59 52.04530 19.53584 35196 ft 459 kts 160°
2026-04-22 05:59 51.98420 19.56588 35194 ft 459 kts 160°
2026-04-22 06:00 51.92310 19.59582 35199 ft 459 kts 160°
2026-04-22 06:00 51.86194 19.62574 35203 ft 459 kts 160°
2026-04-22 06:01 51.80085 19.65584 35209 ft 459 kts 159°
2026-04-22 06:01 51.74035 19.68754 35228 ft 457 kts 158°
2026-04-22 06:02 51.68010 19.71966 35228 ft 456 kts 158°
2026-04-22 06:02 51.61984 19.75113 35223 ft 455 kts 158°
2026-04-22 06:03 51.55974 19.78272 35215 ft 454 kts 158°
2026-04-22 06:03 51.49966 19.81402 35208 ft 454 kts 158°
2026-04-22 06:04 51.43966 19.84567 35199 ft 454 kts 158°
2026-04-22 06:04 51.37957 19.87703 35197 ft 454 kts 158°
2026-04-22 06:05 51.31948 19.90806 35194 ft 454 kts 158°
2026-04-22 06:05 51.25948 19.93929 35189 ft 453 kts 158°
2026-04-22 06:06 51.19947 19.97043 35184 ft 454 kts 159°
2026-04-22 06:06 51.13930 20.00124 35180 ft 454 kts 159°
2026-04-22 06:07 51.07922 20.03193 35176 ft 454 kts 159°
2026-04-22 06:07 51.01907 20.06273 35176 ft 455 kts 159°
2026-04-22 06:08 50.95887 20.09336 35175 ft 454 kts 159°
2026-04-22 06:08 50.89874 20.12403 35175 ft 454 kts 159°
2026-04-22 06:09 50.83851 20.15441 35170 ft 454 kts 160°
2026-04-22 06:09 50.77833 20.18493 35168 ft 454 kts 160°
2026-04-22 06:10 50.71817 20.21544 35167 ft 454 kts 160°
2026-04-22 06:10 50.65799 20.24563 35169 ft 454 kts 160°
2026-04-22 06:11 50.59872 20.27979 35167 ft 453 kts 156°
2026-04-22 06:11 50.53974 20.31508 35169 ft 454 kts 157°
2026-04-22 06:12 50.48058 20.34978 35169 ft 454 kts 157°
2026-04-22 06:12 50.42139 20.38445 35171 ft 454 kts 157°
2026-04-22 06:13 50.36212 20.41891 35177 ft 454 kts 158°
2026-04-22 06:13 50.30295 20.45350 35180 ft 454 kts 158°
2026-04-22 06:14 50.24366 20.48793 35181 ft 454 kts 158°
2026-04-22 06:14 50.18475 20.52207 35177 ft 454 kts 158°
2026-04-22 06:15 50.12542 20.55613 35174 ft 455 kts 158°
2026-04-22 06:15 50.06615 20.59073 35178 ft 455 kts 157°
2026-04-22 06:16 50.00692 20.62548 35176 ft 455 kts 158°
2026-04-22 06:16 49.94764 20.65968 35167 ft 454 kts 158°
2026-04-22 06:17 49.89849 20.68842 35160 ft 454 kts 158°
2026-04-22 06:17 49.83937 20.72283 35154 ft 454 kts 158°
2026-04-22 06:18 49.78013 20.75691 35152 ft 454 kts 158°
2026-04-22 06:18 49.72090 20.79107 35150 ft 454 kts 158°
2026-04-22 06:19 49.66159 20.82517 35149 ft 454 kts 158°
2026-04-22 06:19 49.60236 20.85904 35138 ft 454 kts 158°
2026-04-22 06:20 49.54309 20.89279 35141 ft 454 kts 158°
2026-04-22 06:20 49.48376 20.92658 35132 ft 454 kts 158°
2026-04-22 06:21 49.42444 20.96033 35136 ft 454 kts 158°
2026-04-22 06:21 49.36519 20.99397 35129 ft 454 kts 158°
2026-04-22 06:22 49.30470 21.02230 35130 ft 456 kts 166°
2026-04-22 06:22 49.24295 21.04467 35133 ft 456 kts 165°
2026-04-22 06:23 49.18123 21.06725 35133 ft 456 kts 166°
2026-04-22 06:23 49.11960 21.08983 35134 ft 456 kts 166°
2026-04-22 06:24 49.02701 21.12367 35131 ft 456 kts 166°
2026-04-22 06:25 48.96529 21.14602 35127 ft 456 kts 166°
2026-04-22 06:25 48.90395 21.16842 35127 ft 456 kts 166°
2026-04-22 06:26 48.84225 21.19085 35128 ft 456 kts 166°
2026-04-22 06:26 48.78045 21.21302 35122 ft 456 kts 166°
2026-04-22 06:27 48.71876 21.23533 35122 ft 456 kts 166°
2026-04-22 06:27 48.65724 21.25890 35122 ft 455 kts 162°
2026-04-22 06:28 48.59647 21.28613 35127 ft 455 kts 163°
2026-04-22 06:28 48.53561 21.31269 35123 ft 455 kts 163°
2026-04-22 06:29 48.47475 21.33912 35127 ft 455 kts 163°
2026-04-22 06:29 48.41384 21.36559 35127 ft 455 kts 163°
2026-04-22 06:30 48.35332 21.39181 35126 ft 455 kts 163°
2026-04-22 06:30 48.29247 21.41820 35125 ft 455 kts 163°
2026-04-22 06:31 48.23151 21.44460 35124 ft 455 kts 163°
2026-04-22 06:31 48.17066 21.47063 35127 ft 455 kts 163°
2026-04-22 06:32 48.10983 21.49704 35127 ft 455 kts 163°
2026-04-22 06:32 48.04893 21.52296 35122 ft 455 kts 163°
2026-04-22 06:33 47.98792 21.54900 35124 ft 456 kts 163°
2026-04-22 06:33 47.92696 21.57498 35123 ft 456 kts 164°
2026-04-22 06:34 47.86591 21.60093 35128 ft 456 kts 164°
2026-04-22 06:34 47.80490 21.62679 35123 ft 456 kts 164°
2026-04-22 06:35 47.74390 21.65259 35125 ft 456 kts 164°
2026-04-22 06:35 47.68334 21.67837 35123 ft 456 kts 164°
2026-04-22 06:36 47.62234 21.70399 35125 ft 455 kts 165°
2026-04-22 06:36 47.56136 21.72960 35124 ft 455 kts 164°
2026-04-22 06:37 47.50037 21.75501 35124 ft 455 kts 164°
2026-04-22 06:37 47.43932 21.78070 35120 ft 456 kts 165°
2026-04-22 06:38 47.37834 21.80607 35125 ft 456 kts 165°
2026-04-22 06:38 47.31767 21.83122 35125 ft 456 kts 165°
2026-04-22 06:39 47.25668 21.85666 35123 ft 456 kts 165°
2026-04-22 06:39 47.19575 21.88278 35125 ft 456 kts 164°
2026-04-22 06:40 47.13484 21.90924 35126 ft 456 kts 164°
2026-04-22 06:40 47.07387 21.93550 35123 ft 456 kts 165°
2026-04-22 06:41 47.01291 21.96172 35121 ft 457 kts 165°
2026-04-22 06:41 46.95189 21.98794 35125 ft 456 kts 165°
2026-04-22 06:42 46.89097 22.01409 35126 ft 457 kts 165°
2026-04-22 06:42 46.82991 22.04026 35124 ft 457 kts 165°
2026-04-22 06:43 46.76890 22.06624 35127 ft 457 kts 165°
2026-04-22 06:43 46.70782 22.09212 35125 ft 457 kts 165°
2026-04-22 06:44 46.64677 22.11806 35125 ft 457 kts 166°
2026-04-22 06:44 46.58613 22.14375 35123 ft 457 kts 166°
2026-04-22 06:45 46.52498 22.16953 35124 ft 457 kts 166°
2026-04-22 06:45 46.46387 22.19526 35125 ft 457 kts 166°
2026-04-22 06:46 46.40274 22.22088 35126 ft 457 kts 166°
2026-04-22 06:46 46.34170 22.24648 35119 ft 456 kts 166°
2026-04-22 06:47 46.28063 22.27212 35114 ft 457 kts 166°
2026-04-22 06:47 46.21955 22.29756 35112 ft 457 kts 166°
2026-04-22 06:48 46.15876 22.32291 35114 ft 457 kts 166°
2026-04-22 06:48 46.09747 22.34835 35111 ft 457 kts 166°
2026-04-22 06:49 46.03629 22.37376 35111 ft 457 kts 166°
2026-04-22 06:49 45.97507 22.39902 35110 ft 458 kts 166°
2026-04-22 06:50 45.91382 22.42419 35106 ft 458 kts 167°
2026-04-22 06:50 45.85261 22.44958 35106 ft 458 kts 166°
2026-04-22 06:51 45.79140 22.47474 35108 ft 458 kts 167°
2026-04-22 06:51 45.73013 22.49977 35107 ft 457 kts 167°
2026-04-22 06:52 45.66894 22.52489 35112 ft 457 kts 167°
2026-04-22 06:52 45.60819 22.54954 35114 ft 457 kts 167°
2026-04-22 06:53 45.54702 22.57457 35109 ft 457 kts 167°
2026-04-22 06:53 45.48580 22.59950 35103 ft 457 kts 167°
2026-04-22 06:54 45.42453 22.62419 35100 ft 458 kts 167°
2026-04-22 06:54 45.36330 22.64909 35096 ft 457 kts 167°
2026-04-22 06:55 45.30202 22.67365 35087 ft 457 kts 167°
2026-04-22 06:55 45.24082 22.69833 35096 ft 458 kts 168°
2026-04-22 06:56 45.17953 22.72288 35081 ft 458 kts 168°
2026-04-22 06:56 45.11815 22.74738 35098 ft 458 kts 168°
2026-04-22 06:57 45.05722 22.77182 35094 ft 458 kts 168°
2026-04-22 06:57 44.99597 22.79623 35079 ft 457 kts 168°
2026-04-22 06:58 44.93465 22.82078 35090 ft 458 kts 168°
2026-04-22 06:58 44.87333 22.84507 35087 ft 458 kts 168°
2026-04-22 06:59 44.81209 22.86949 35082 ft 458 kts 169°
2026-04-22 06:59 44.75073 22.89375 35079 ft 457 kts 169°
2026-04-22 07:00 44.68938 22.91788 35082 ft 457 kts 169°
2026-04-22 07:00 44.62808 22.94210 35079 ft 457 kts 169°
2026-04-22 07:01 44.56724 22.96595 35079 ft 458 kts 169°
2026-04-22 07:01 44.50586 22.98991 35081 ft 457 kts 169°
2026-04-22 07:02 44.44457 23.01388 35084 ft 457 kts 169°
2026-04-22 07:02 44.38319 23.03798 35095 ft 457 kts 169°
2026-04-22 07:03 44.32189 23.06179 35093 ft 457 kts 169°
2026-04-22 07:03 44.26108 23.08535 35078 ft 456 kts 170°
2026-04-22 07:04 44.19981 23.10899 35087 ft 457 kts 169°
2026-04-22 07:04 44.13859 23.13273 35081 ft 457 kts 170°
2026-04-22 07:05 44.07731 23.15648 35078 ft 457 kts 170°
2026-04-22 07:05 44.01604 23.18000 35081 ft 457 kts 170°
2026-04-22 07:06 43.96511 23.19965 35084 ft 457 kts 171°
2026-04-22 07:06 43.90386 23.22306 35086 ft 456 kts 171°
2026-04-22 07:07 43.84273 23.24646 35078 ft 456 kts 171°
2026-04-22 07:07 43.78185 23.27192 35077 ft 457 kts 169°
2026-04-22 07:08 43.72110 23.29806 35077 ft 457 kts 169°
2026-04-22 07:08 43.66046 23.32386 35073 ft 456 kts 169°
2026-04-22 07:09 43.59984 23.34984 35077 ft 456 kts 169°
2026-04-22 07:09 43.53957 23.37535 35077 ft 456 kts 169°
2026-04-22 07:10 43.47888 23.40103 35074 ft 457 kts 169°
2026-04-22 07:10 43.41812 23.42690 35077 ft 456 kts 169°
2026-04-22 07:11 43.35745 23.45244 35071 ft 456 kts 169°
2026-04-22 07:11 43.29684 23.47812 35064 ft 455 kts 169°
2026-04-22 07:12 43.23626 23.50349 35059 ft 455 kts 169°
2026-04-22 07:12 43.17571 23.52895 35066 ft 455 kts 170°
2026-04-22 07:13 43.11514 23.55438 35059 ft 455 kts 170°
2026-04-22 07:13 43.05455 23.57970 35051 ft 455 kts 170°
2026-04-22 07:14 42.99405 23.60482 35043 ft 455 kts 170°
2026-04-22 07:14 42.93382 23.63004 35045 ft 455 kts 170°
2026-04-22 07:15 42.87320 23.65517 35048 ft 455 kts 170°
2026-04-22 07:15 42.81261 23.68027 35047 ft 455 kts 170°
2026-04-22 07:16 42.75207 23.70520 35046 ft 455 kts 171°
2026-04-22 07:16 42.69145 23.73026 35049 ft 455 kts 171°
2026-04-22 07:17 42.63078 23.75528 35053 ft 455 kts 171°
2026-04-22 07:17 42.57063 23.78007 35056 ft 454 kts 171°
2026-04-22 07:18 42.51021 23.80500 35062 ft 453 kts 171°
2026-04-22 07:18 42.44985 23.82964 35055 ft 452 kts 171°
2026-04-22 07:19 42.38960 23.85418 35052 ft 452 kts 171°
2026-04-22 07:19 42.32936 23.87880 35049 ft 452 kts 171°
2026-04-22 07:20 42.26918 23.90330 35050 ft 452 kts 171°
2026-04-22 07:20 42.20893 23.92769 35051 ft 452 kts 171°
2026-04-22 07:21 42.14868 23.95215 35047 ft 452 kts 172°
2026-04-22 07:21 42.08843 23.97655 35049 ft 452 kts 172°
2026-04-22 07:22 42.02822 24.00095 35050 ft 452 kts 172°
2026-04-22 07:22 41.96764 24.02053 35051 ft 444 kts 179°
2026-04-22 07:23 41.90718 24.03503 35051 ft 444 kts 178°
2026-04-22 07:23 41.84629 24.04971 35049 ft 444 kts 178°
2026-04-22 07:24 41.78547 24.06436 35052 ft 444 kts 178°
2026-04-22 07:24 41.72456 24.07888 35051 ft 444 kts 178°
2026-04-22 07:25 41.66373 24.09350 35051 ft 445 kts 178°
2026-04-22 07:25 41.60276 24.10812 35055 ft 445 kts 178°
2026-04-22 07:26 41.54202 24.12456 35048 ft 452 kts 171°
2026-04-22 07:26 41.48268 24.15465 35053 ft 457 kts 166°
2026-04-22 07:27 41.42342 24.18562 35047 ft 457 kts 167°
2026-04-22 07:27 41.36415 24.21622 35046 ft 457 kts 166°
2026-04-22 07:28 41.27524 24.26198 35040 ft 457 kts 166°
2026-04-22 07:28 41.21634 24.29247 35041 ft 457 kts 166°
2026-04-22 07:29 41.15700 24.32281 35039 ft 457 kts 166°
2026-04-22 07:29 41.09767 24.35340 35039 ft 457 kts 166°
2026-04-22 07:30 41.03833 24.38374 35034 ft 457 kts 166°
2026-04-22 07:30 40.97903 24.41414 35038 ft 457 kts 166°
2026-04-22 07:31 40.91973 24.44441 35030 ft 456 kts 166°
2026-04-22 07:31 40.86042 24.47455 35031 ft 457 kts 166°
2026-04-22 07:32 40.80107 24.50479 35031 ft 457 kts 166°
2026-04-22 07:32 40.74203 24.53466 35029 ft 458 kts 166°
2026-04-22 07:33 40.68254 24.56477 35035 ft 458 kts 166°
2026-04-22 07:33 40.62300 24.59492 35035 ft 459 kts 166°
2026-04-22 07:34 40.56344 24.62498 35034 ft 459 kts 166°
2026-04-22 07:34 40.50371 24.65500 35031 ft 459 kts 166°
2026-04-22 07:35 40.44403 24.68492 35030 ft 459 kts 166°
2026-04-22 07:35 40.38423 24.71492 35031 ft 460 kts 166°
2026-04-22 07:36 40.32448 24.74482 35025 ft 459 kts 166°
2026-04-22 07:36 40.26474 24.77479 35023 ft 460 kts 166°
2026-04-22 07:37 40.20494 24.80458 35022 ft 460 kts 166°
2026-04-22 07:37 40.14556 24.83411 35018 ft 459 kts 166°
2026-04-22 07:38 40.08579 24.86364 35019 ft 459 kts 166°
2026-04-22 07:38 40.02605 24.89339 35015 ft 460 kts 166°
2026-04-22 07:39 39.96627 24.92287 35009 ft 459 kts 165°
2026-04-22 07:39 39.90648 24.95264 35004 ft 460 kts 165°
2026-04-22 07:40 39.84674 24.98201 35004 ft 459 kts 165°
2026-04-22 07:40 39.78694 25.01137 35000 ft 459 kts 165°
2026-04-22 07:41 39.72711 25.04077 34992 ft 459 kts 165°
2026-04-22 07:41 39.66732 25.07009 34999 ft 459 kts 165°
2026-04-22 07:42 39.60760 25.09935 35002 ft 459 kts 165°
2026-04-22 07:42 39.54891 25.13283 35000 ft 463 kts 160°
2026-04-22 07:43 39.49073 25.16838 34988 ft 462 kts 160°
2026-04-22 07:43 39.43297 25.20343 34987 ft 462 kts 160°
2026-04-22 07:44 39.37475 25.23866 34997 ft 462 kts 160°
2026-04-22 07:44 39.31650 25.27375 35005 ft 462 kts 160°
2026-04-22 07:45 39.25822 25.30890 34998 ft 463 kts 160°
2026-04-22 07:45 39.19990 25.34403 34992 ft 463 kts 160°
2026-04-22 07:46 39.14164 25.37908 34984 ft 462 kts 160°
2026-04-22 07:46 39.08334 25.41408 34981 ft 462 kts 160°
2026-04-22 07:47 39.02498 25.44895 34982 ft 462 kts 160°
2026-04-22 07:47 38.96661 25.48377 34978 ft 462 kts 160°
2026-04-22 07:48 38.90828 25.51850 34973 ft 462 kts 160°
2026-04-22 07:48 38.84999 25.55326 34967 ft 462 kts 161°
2026-04-22 07:49 38.79162 25.58792 34961 ft 462 kts 160°
2026-04-22 07:49 38.73328 25.62252 34954 ft 462 kts 160°
2026-04-22 07:50 38.67496 25.65710 34946 ft 462 kts 161°
2026-04-22 07:50 38.61652 25.69155 34949 ft 462 kts 160°
2026-04-22 07:51 38.55841 25.72580 34939 ft 463 kts 160°
2026-04-22 07:51 38.49993 25.76033 34938 ft 463 kts 160°
2026-04-22 07:52 38.44137 25.79468 34936 ft 463 kts 160°
2026-04-22 07:52 38.38278 25.82919 34939 ft 464 kts 160°
2026-04-22 07:53 38.32411 25.86358 34935 ft 464 kts 161°
2026-04-22 07:53 38.26526 25.89795 34936 ft 465 kts 161°
2026-04-22 07:54 38.20523 25.92720 34933 ft 461 kts 166°
2026-04-22 07:54 38.15489 25.94992 34934 ft 462 kts 166°
2026-04-22 07:55 38.09432 25.97767 34932 ft 462 kts 166°
2026-04-22 07:55 38.03378 26.00511 34938 ft 462 kts 166°
2026-04-22 07:56 37.97319 26.03268 34943 ft 462 kts 166°
2026-04-22 07:56 37.91261 26.06007 34944 ft 462 kts 166°
2026-04-22 07:57 37.85206 26.08750 34951 ft 461 kts 166°
2026-04-22 07:57 37.79157 26.11476 34958 ft 462 kts 166°
2026-04-22 07:58 37.73148 26.14194 34957 ft 461 kts 166°
2026-04-22 07:58 37.67103 26.16908 34956 ft 460 kts 166°
2026-04-22 07:59 37.61069 26.19626 34955 ft 460 kts 166°
2026-04-22 07:59 37.55037 26.22336 34961 ft 460 kts 166°
2026-04-22 08:00 37.49013 26.25034 34961 ft 459 kts 166°
2026-04-22 08:00 37.42992 26.27720 34962 ft 459 kts 166°
2026-04-22 08:01 37.36931 26.30433 34975 ft 468 kts 166°
2026-04-22 08:01 37.30759 26.33167 34945 ft 471 kts 166°
2026-04-22 08:02 37.27663 26.34546 34241 ft 474 kts 166°
2026-04-22 08:02 37.24513 26.35943 33075 ft 486 kts 165°
2026-04-22 08:02 37.21310 26.37366 32155 ft 489 kts 165°
2026-04-22 08:02 37.18123 26.38786 31614 ft 483 kts 165°
2026-04-22 08:03 37.14971 26.40187 31098 ft 477 kts 165°
2026-04-22 08:03 37.11855 26.41568 30572 ft 472 kts 165°
2026-04-22 08:03 37.08774 26.42940 30043 ft 467 kts 165°
2026-04-22 08:03 37.05764 26.44268 29503 ft 462 kts 165°
2026-04-22 08:04 37.02751 26.45601 28944 ft 457 kts 164°
2026-04-22 08:04 36.99758 26.46929 28360 ft 453 kts 164°
2026-04-22 08:04 36.96798 26.48232 27769 ft 450 kts 164°
2026-04-22 08:04 36.93869 26.49605 27174 ft 449 kts 159°
2026-04-22 08:05 36.91175 26.51570 26592 ft 450 kts 146°
2026-04-22 08:05 36.88860 26.54205 26002 ft 451 kts 133°
2026-04-22 08:05 36.87041 26.57369 25313 ft 445 kts 121°
2026-04-22 08:05 36.85724 26.60852 24216 ft 441 kts 113°
2026-04-22 08:06 36.84555 26.64359 23191 ft 435 kts 113°
2026-04-22 08:06 36.83398 26.67780 22686 ft 416 kts 114°
2026-04-22 08:06 36.82282 26.71027 22245 ft 402 kts 114°
2026-04-22 08:06 36.81183 26.74235 21748 ft 400 kts 114°
2026-04-22 08:07 36.80091 26.77414 21271 ft 398 kts 114°
2026-04-22 08:07 36.79002 26.80579 20787 ft 395 kts 114°
2026-04-22 08:07 36.77918 26.83718 20321 ft 393 kts 114°
2026-04-22 08:07 36.76842 26.86839 19858 ft 391 kts 114°
2026-04-22 08:08 36.75783 26.89910 19388 ft 389 kts 114°
2026-04-22 08:08 36.74715 26.93000 18935 ft 387 kts 114°
2026-04-22 08:08 36.73648 26.96063 18481 ft 384 kts 114°
2026-04-22 08:08 36.72595 26.99100 18022 ft 379 kts 114°
2026-04-22 08:09 36.71552 27.02112 17582 ft 377 kts 114°
2026-04-22 08:09 36.70511 27.05097 17159 ft 374 kts 114°
2026-04-22 08:09 36.69479 27.08062 16730 ft 371 kts 114°
2026-04-22 08:09 36.68454 27.10997 16295 ft 368 kts 114°
2026-04-22 08:10 36.67437 27.13910 15877 ft 366 kts 114°
2026-04-22 08:10 36.66425 27.16802 15471 ft 363 kts 114°
2026-04-22 08:10 36.65419 27.19678 15068 ft 361 kts 114°
2026-04-22 08:10 36.64419 27.22528 14651 ft 358 kts 114°
2026-04-22 08:11 36.63425 27.25366 14239 ft 356 kts 114°
2026-04-22 08:11 36.62441 27.28187 13813 ft 354 kts 114°
2026-04-22 08:11 36.61460 27.30986 13396 ft 352 kts 114°
2026-04-22 08:11 36.60481 27.33761 12962 ft 349 kts 114°
2026-04-22 08:12 36.59510 27.36527 12525 ft 347 kts 114°
2026-04-22 08:12 36.58543 27.39272 12102 ft 345 kts 114°
2026-04-22 08:12 36.57585 27.42000 11657 ft 343 kts 114°
2026-04-22 08:12 36.56626 27.44712 11221 ft 340 kts 115°
2026-04-22 08:13 36.55676 27.47394 10778 ft 338 kts 114°
2026-04-22 08:13 36.54737 27.50055 10339 ft 335 kts 114°
2026-04-22 08:13 36.53810 27.52674 10119 ft 324 kts 114°
2026-04-22 08:13 36.52922 27.55186 9997 ft 311 kts 115°
2026-04-22 08:14 36.52055 27.57631 9607 ft 308 kts 115°
2026-04-22 08:14 36.51207 27.60027 9238 ft 305 kts 114°
2026-04-22 08:14 36.50361 27.62432 8861 ft 302 kts 114°
2026-04-22 08:14 36.49521 27.64805 8485 ft 299 kts 115°
2026-04-22 08:15 36.48679 27.67156 8077 ft 296 kts 115°
2026-04-22 08:15 36.47883 27.69508 7669 ft 294 kts 107°
2026-04-22 08:15 36.47481 27.71981 7302 ft 291 kts 100°
2026-04-22 08:15 36.47250 27.74456 7055 ft 286 kts 95°
2026-04-22 08:16 36.47076 27.76919 7013 ft 286 kts 95°
2026-04-22 08:16 36.46902 27.79381 7010 ft 286 kts 95°
2026-04-22 08:16 36.46726 27.81848 7013 ft 286 kts 95°
2026-04-22 08:16 36.46552 27.84312 7010 ft 286 kts 95°
2026-04-22 08:17 36.46378 27.86773 7007 ft 286 kts 95°
2026-04-22 08:17 36.46203 27.89235 7007 ft 286 kts 95°
2026-04-22 08:17 36.46028 27.91700 7012 ft 286 kts 95°
2026-04-22 08:17 36.45854 27.94157 6978 ft 285 kts 95°
2026-04-22 08:18 36.45685 27.96608 6686 ft 284 kts 93°
2026-04-22 08:18 36.45921 27.99027 6437 ft 283 kts 76°
2026-04-22 08:18 36.46412 28.01392 6192 ft 282 kts 75°
2026-04-22 08:18 36.46902 28.03734 5930 ft 277 kts 75°
2026-04-22 08:19 36.47384 28.06034 5631 ft 273 kts 75°
2026-04-22 08:19 36.47857 28.08294 5323 ft 267 kts 76°
2026-04-22 08:19 36.48322 28.10529 4930 ft 264 kts 76°
2026-04-22 08:19 36.48777 28.12698 4428 ft 256 kts 76°
2026-04-22 08:20 36.49220 28.14817 3925 ft 251 kts 75°
2026-04-22 08:20 36.49655 28.16906 3426 ft 247 kts 76°
2026-04-22 08:20 36.50079 28.18952 2921 ft 242 kts 76°
2026-04-22 08:20 36.50493 28.20955 2414 ft 238 kts 76°
2026-04-22 08:21 36.50881 28.22928 2066 ft 227 kts 84°
2026-04-22 08:21 36.50654 28.24774 2011 ft 217 kts 119°
2026-04-22 08:21 36.49631 28.26107 2013 ft 217 kts 153°
2026-04-22 08:21 36.48180 28.26605 2006 ft 219 kts 180°
2026-04-22 08:22 36.46699 28.26179 2009 ft 222 kts 207°
2026-04-22 08:22 36.45568 28.25001 2032 ft 206 kts 231°
2026-04-22 08:22 36.44907 28.23541 2006 ft 184 kts 247°
2026-04-22 08:22 36.44480 28.22125 1955 ft 169 kts 250°
2026-04-22 08:23 36.44087 28.20778 1765 ft 162 kts 249°
2026-04-22 08:23 36.43718 28.19515 1562 ft 152 kts 250°
2026-04-22 08:23 36.43363 28.18297 1369 ft 149 kts 249°
2026-04-22 08:23 36.43010 28.17089 1174 ft 148 kts 249°
2026-04-22 08:24 36.42659 28.15887 991 ft 148 kts 249°
2026-04-22 08:24 36.42307 28.14685 788 ft 148 kts 249°
2026-04-22 08:24 36.41956 28.13488 600 ft 147 kts 249°
2026-04-22 08:24 36.41604 28.12292 414 ft 148 kts 250°
2026-04-22 08:25 36.41250 28.11078 213 ft 150 kts 251°
2026-04-22 08:25 36.40905 28.09885 27 ft 141 kts 250°
2026-04-22 08:25 36.40623 28.08920 29 ft 90 kts 250°
2026-04-22 08:25 36.40464 28.08382 25 ft 47 kts 250°
2026-04-22 08:26 36.40355 28.08041 27 ft 31 kts 235°
2026-04-22 08:26 36.40225 28.07899 25 ft 18 kts 220°
2026-04-22 08:26 36.40146 28.07885 29 ft 12 kts 113°
2026-04-22 08:26 36.40165 28.07983 26 ft 12 kts 70°
2026-04-22 08:27 36.40199 28.08099 27 ft 16 kts 70°
2026-04-22 08:27 36.40238 28.08232 27 ft 17 kts 70°
2026-04-22 08:27 36.40280 28.08373 28 ft 18 kts 70°
2026-04-22 08:27 36.40324 28.08520 28 ft 18 kts 70°
2026-04-22 08:28 36.40369 28.08673 29 ft 19 kts 70°
2026-04-22 08:28 36.40400 28.08820 29 ft 17 kts 89°
2026-04-22 08:28 36.40396 28.08967 29 ft 17 kts 85°
2026-04-22 08:28 36.40429 28.09104 29 ft 14 kts 70°
2026-04-22 08:29 36.40414 28.09172 29 ft 8 kts 146°
2026-04-22 08:29 36.40391 28.09184 29 ft 0 kts 160°
2026-04-22 08:29 36.40384 28.09187 29 ft 0 kts 160°